Regional Weather Roundup
Issued by NWS Little Rock, AR

Home | Current Version | Previous Version | Graphics & Text | Print | Product List | Glossary On
Versions: 1 2 3 4 5 6 7 8 9 10 11 12 13 14 15 16 17 18 19 20 21 22 23 24 25 26 27 28 29 30 31 32 33 34 35 36 37 38 39 40 41 42 43 44 45 46 47 48 49 50
000
ASUS44 KLZK 041305
RWRLZK

WEATHER ROUNDUP FOR ARKANSAS
NATIONAL WEATHER SERVICE LITTLE ROCK AR
800 AM CDT FRI SEP 04 2015

NOTE: "FAIR" INDICATES FEW OR NO CLOUDS BELOW 12,000 FEET WITH NO
SIGNIFICANT WEATHER AND/OR OBSTRUCTIONS TO VISIBILITY.

ARZ001-003-010-029-041400-
NORTHWEST ARKANSAS

CITY           SKY/WX    TMP DP  RH WIND       PRES   REMARKS
FAYETTEVILLE   PTSUNNY   66  66 100 CALM      30.04R
FORT SMITH     SUNNY     73  68  84 E6        29.99R
HARRISON       MOSUNNY   70  67  90 SE5       30.05R
BENTONVILLE    PTSUNNY   72  64  78 S3        30.04R
ROGERS         PTSUNNY   72  68  87 SE6       30.05R
SILOAM SPGS    PTSUNNY   70  63  78 SE5       30.02R
HIGHFILL       PTSUNNY   72  68  87 CALM      30.03R
SPRINGDALE     PTSUNNY   72  66  83 SE3       30.05R
$$

ARZ004-005-016-041400-
NORTH CENTRAL ARKANSAS

CITY           SKY/WX    TMP DP  RH WIND       PRES   REMARKS
BATESVILLE     SUNNY     72  70  94 CALM      30.02R
FLIPPIN        MOSUNNY   70  63  78 CALM      30.01R
MTN HOME       MOSUNNY   72  70  93 CALM      30.03R FOG
$$

ARZ040-041-041400-
WEST CENTRAL ARKANSAS

CITY           SKY/WX    TMP DP  RH WIND       PRES   REMARKS
MENA           SUNNY     70  68  94 CALM      30.03R
MOUNT IDA      SUNNY     69  67  93 CALM      29.99R FOG
$$

ARZ009-017-025-026-028-041400-
NORTHEAST ARKANSAS

CITY           SKY/WX    TMP DP  RH WIND       PRES   REMARKS
JONESBORO      SUNNY     74  73  97 CALM      30.02R
NEWPORT        SUNNY     73  72  97 NE3       30.03R
WALNUT RIDGE   SUNNY     72  68  88 CALM      30.02R
BLYTHEVILLE    SUNNY     76  73  91 CALM      30.02R
$$

ARZ022-023-033-042-044-041400-
CENTRAL ARKANSAS

CITY           SKY/WX    TMP DP  RH WIND       PRES   REMARKS
LITTLE ROCK    MOSUNNY   76  70  82 NE3       30.01R
N LITTLE ROCK    N/A     78  72  82 E3        30.01R
SEARCY         SUNNY     74  71  91 CALM      30.03R
HOT SPRINGS    SUNNY     77  69  76 CALM      30.01R
RUSSELLVILLE   SUNNY     74  70  87 CALM      30.01R
$$

ARZ036-041400-
EAST ARKANSAS

CITY           SKY/WX    TMP DP  RH WIND       PRES   REMARKS
WEST MEMPHIS   SUNNY     75  75 100 CALM      30.01R
$$

ARZ050-053-066-070-073-041400-
SOUTHWEST ARKANSAS

CITY           SKY/WX    TMP DP  RH WIND       PRES   REMARKS
ARKADELPHIA    FAIR      74  72  93 CALM      30.00R FOG
CAMDEN         MOSUNNY   73  68  83 CALM      29.99R
TEXARKANA      CLOUDY    75  70  84 CALM      29.99R
EL DORADO      CLOUDY    74  69  85 CALM      30.00R
DE QUEEN       SUNNY     71  70  96 CALM      29.98R FOG
$$

ARZ056-057-069-041400-
SOUTHEAST ARKANSAS

CITY           SKY/WX    TMP DP  RH WIND       PRES   REMARKS
PINE BLUFF     SUNNY     74  70  87 CALM      30.00R
STUTTGART      SUNNY     73  68  83 CALM      30.01R
MONTICELLO     SUNNY     75  72  90 CALM      30.00R

$$




USA.gov is the U.S. government's official web portal to all federal, state and local government web resources and services.